CW6225 Weather Reports


Display with metric or nautical units.
time (UTC)temp
F
wind
direction
speed
MPH
gust
MPH
rain 1hr
in
rain 24hr
in
rain mn
in
humidity
%
barometer
mb
20260506101613 50 170 11.0 20.0 0.00 0.00 0.00 88 1017.3
20260506100051 50 153 11.0 22.0 0.00 0.00 0.00 88 1017.1
20260506094556 51 178 11.0 22.0 0.00 0.00 0.00 88 1017.1
20260506093057 50 154 9.0 20.0 0.00 0.00 0.00 89 1017.1
20260506091549 50 156 9.0 20.0 0.00 0.00 0.00 89 1016.8
20260506090100 50 169 10.0 19.0 0.00 0.00 0.00 90 1016.7
20260506084611 50 141 10.0 20.0 0.00 0.00 0.00 90 1016.7
20260506083054 50 163 10.0 19.0 0.00 0.00 0.00 90 1016.7
20260506081609 50 175 6.0 14.0 0.00 0.00 0.00 89 1016.7
20260506073057 51 175 6.0 15.0 0.00 0.00 0.00 89 1016.2
20260506071551 51 182 8.0 17.0 0.00 0.00 0.00 89 1016.0
20260506061551 51 169 10.0 19.0 0.00 0.00 0.00 89 1015.7
20260506050104 51 155 6.0 13.0 0.00 0.00 0.00 88 1015.6
20260506044551 51 169 5.0 11.0 0.00 0.00 0.00 88 1015.4
20260506043049 52 170 4.0 10.0 0.00 0.00 0.00 88 1015.3
20260506041559 52 153 4.0 8.0 0.00 0.00 0.00 87 1015.1
20260506040053 52 160 3.0 8.0 0.00 0.00 0.00 87 1015.1
20260506034554 52 174 4.0 11.0 0.00 0.00 0.00 87 1014.9
20260506033051 52 165 4.0 12.0 0.00 0.00 0.00 87 1014.6
20260506031551 52 185 8.0 17.0 0.00 0.00 0.00 87 1014.7
20260506030056 53 162 8.0 17.0 0.00 0.00 0.00 86 1014.7
20260506024550 53 196 10.0 16.0 0.00 0.00 0.00 86 1014.7
20260506023109 53 165 9.0 16.0 0.00 0.00 0.00 86 1014.8
20260506021552 53 167 5.0 9.0 0.00 0.00 0.00 85 1014.8
20260506020056 54 166 5.0 8.0 0.00 0.00 0.00 85 1014.8
20260506014551 54 142 5.0 7.0 0.00 0.00 0.00 84 1014.9
20260506013056 54 165 4.0 6.0 0.00 0.00 0.00 84 1014.9
20260506011552 54 161 4.0 6.0 0.00 0.00 0.00 83 1015.0
20260506010057 55 165 4.0 6.0 0.00 0.00 0.00 83 1015.1
20260506004557 55 165 4.0 6.0 0.00 0.00 0.00 82 1015.1
20260506003050 56 159 4.0 6.0 0.00 0.00 0.00 80 1015.1
20260506001556 57 173 4.0 6.0 0.00 0.00 0.00 79 1015.1
20260506000058 57 163 4.0 6.0 0.00 0.00 0.00 79 1015.3
20260505234553 57 167 3.0 6.0 0.00 0.00 0.00 82 1015.4
20260505233053 56 169 4.0 6.0 0.00 0.00 0.00 82 1015.5
20260505231551 57 173 4.0 6.0 0.00 0.00 0.00 79 1015.6
20260505230113 58 165 3.0 5.0 0.00 0.00 0.00 80 1015.8
20260505224554 57 169 3.0 6.0 0.00 0.00 0.00 82 1016.0
20260505223052 56 177 2.0 5.0 0.00 0.00 0.00 82 1016.0
20260505221555 57 162 2.0 5.0 0.00 0.00 0.00 82 1016.2
20260505220055 56 177 2.0 6.0 0.00 0.00 0.00 82 1016.3
20260505214549 56 169 2.0 5.0 0.00 0.00 0.00 83 1016.4
20260505213052 56 169 2.0 6.0 0.00 0.00 0.00 83 1016.4
20260505211559 55 170 3.0 6.0 0.00 0.00 0.00 83 1016.5
20260505210058 56 177 2.0 5.0 0.00 0.00 0.00 83 1016.7
20260505204558 54 169 1.0 6.0 0.00 0.00 0.00 85 1016.6
20260505203055 54 173 2.0 6.0 0.00 0.00 0.00 85 1016.6
20260505201552 54 174 2.0 5.0 0.00 0.00 0.00 85 1016.6
20260505194548 53 185 1.0 3.0 0.00 0.00 0.00 86 1016.6
20260505193102 53 180 1.0 2.0 0.00 0.00 0.00 87 1016.5
20260505191557 53 184 1.0 5.0 0.00 0.00 0.00 88 1016.7
20260505190050 52 175 1.0 5.0 0.00 0.00 0.00 88 1016.6
20260505184557 52 184 1.0 5.0 0.00 0.00 0.00 89 1016.5
20260505183057 52 186 2.0 5.0 0.00 0.00 0.00 89 1016.4
20260505181558 52 179 1.0 4.0 0.00 0.00 0.00 89 1016.5
20260505180054 52 183 0.0 2.0 0.00 0.00 0.00 90 1016.5
20260505174601 52 0 0.0 4.0 0.00 0.00 0.00 90 1016.4
20260505173056 52 0 1.0 3.0 0.00 0.00 0.00 90 1016.2
20260505171558 52 171 0.0 2.0 0.00 0.00 0.00 90 1016.1
20260505170051 52 170 1.0 4.0 0.00 0.00 0.00 90 1016.2
20260505164551 51 169 1.0 5.0 0.00 0.00 0.00 90 1016.2
20260505163048 51 171 2.0 6.0 0.00 0.00 0.00 89 1016.1
20260505161548 52 171 3.0 5.0 0.00 0.00 0.00 88 1016.1
20260505153054 52 0 1.0 3.0 0.00 0.00 0.00 89 1015.7
20260505151552 51 179 1.0 3.0 0.00 0.00 0.00 89 1015.7
20260505150104 51 174 1.0 4.0 0.00 0.00 0.00 90 1015.5
20260505130110 51 144 8.0 16.0 0.00 0.00 0.00 90 1014.1
20260505124552 50 183 8.0 14.0 0.00 0.00 0.00 90 1014.0
20260505123054 50 167 6.0 13.0 0.00 0.00 0.00 91 1013.9
20260505121551 50 168 5.0 10.0 0.00 0.00 0.00 91 1013.8
20260505114551 50 161 3.0 6.0 0.00 0.00 0.00 90 1013.6
20260505113112 51 174 3.0 6.0 0.00 0.00 0.00 90 1013.4
20260505111557 51 159 4.0 6.0 0.00 0.00 0.00 89 1013.3